Time,TemperatureF,DewpointF,PressureIn,WindDirection,WindDirectionDegrees,WindSpeedMPH,WindSpeedGustMPH,Humidity,HourlyPrecipIn,Conditions,Clouds,dailyrainin,SolarRadiationWatts/m^2,SoftwareType,DateUTC
2013-03-26 00:02:00,62.0,0.0,-100.00,WNW,300,12.0,20.0,8,0.00,,,0.00,0.000000,,2013-03-26 07:02:00,
2013-03-26 00:12:00,62.0,0.0,-100.00,WNW,300,12.0,20.0,8,0.00,,,0.00,0.000000,,2013-03-26 07:12:00,
2013-03-26 00:22:00,62.0,0.0,-100.00,WNW,300,12.0,20.0,8,0.00,,,0.00,0.000000,,2013-03-26 07:22:00,
2013-03-26 00:52:00,59.0,0.0,-100.00,SSW,193,7.0,28.0,9,0.00,,,0.00,0.000000,,2013-03-26 07:52:00,
2013-03-26 01:02:00,59.0,0.0,-100.00,SSW,193,7.0,28.0,9,0.00,,,0.00,0.000000,,2013-03-26 08:02:00,
2013-03-26 01:12:00,59.0,0.0,-100.00,SSW,193,7.0,28.0,9,0.00,,,0.00,0.000000,,2013-03-26 08:12:00,
2013-03-26 01:22:00,59.0,0.0,-100.00,SSW,193,7.0,28.0,9,0.00,,,0.00,0.000000,,2013-03-26 08:22:00,
2013-03-26 01:52:00,60.0,-1.0,-100.00,SW,225,10.0,27.0,8,0.00,,,0.00,0.000000,,2013-03-26 08:52:00,
2013-03-26 02:02:00,60.0,-1.0,-100.00,SW,225,10.0,27.0,8,0.00,,,0.00,0.000000,,2013-03-26 09:02:00,
2013-03-26 02:12:00,60.0,-1.0,-100.00,SW,225,10.0,27.0,8,0.00,,,0.00,0.000000,,2013-03-26 09:12:00,
2013-03-26 02:22:00,60.0,-1.0,-100.00,SW,225,10.0,27.0,8,0.00,,,0.00,0.000000,,2013-03-26 09:22:00,
2013-03-26 02:52:00,59.0,5.0,-100.00,SW,215,8.0,30.0,11,0.00,,,0.00,0.000000,,2013-03-26 09:52:00,
2013-03-26 03:02:00,59.0,5.0,-100.00,SW,215,8.0,30.0,11,0.00,,,0.00,0.000000,,2013-03-26 10:02:00,
2013-03-26 03:12:00,59.0,5.0,-100.00,SW,215,8.0,30.0,11,0.00,,,0.00,0.000000,,2013-03-26 10:12:00,
2013-03-26 03:22:00,59.0,5.0,-100.00,SW,215,8.0,30.0,11,0.00,,,0.00,0.000000,,2013-03-26 10:22:00,
2013-03-26 03:53:00,58.0,12.0,-100.00,SW,229,6.0,30.0,16,0.00,,,0.00,0.000000,,2013-03-26 10:53:00,
2013-03-26 04:02:00,58.0,12.0,-100.00,SW,229,6.0,30.0,16,0.00,,,0.00,0.000000,,2013-03-26 11:02:00,
2013-03-26 04:12:00,58.0,12.0,-100.00,SW,229,6.0,30.0,16,0.00,,,0.00,0.000000,,2013-03-26 11:12:00,
2013-03-26 04:21:00,58.0,12.0,-100.00,SW,229,6.0,30.0,16,0.00,,,0.00,0.000000,,2013-03-26 11:21:00,
2013-03-26 04:52:00,57.0,10.0,-100.00,SSW,205,4.0,18.0,15,0.00,,,0.00,0.000000,,2013-03-26 11:52:00,
2013-03-26 05:02:00,57.0,10.0,-100.00,SSW,205,4.0,18.0,15,0.00,,,0.00,0.000000,,2013-03-26 12:02:00,
2013-03-26 05:12:00,57.0,10.0,-100.00,SSW,205,4.0,18.0,15,0.00,,,0.00,0.000000,,2013-03-26 12:12:00,
2013-03-26 05:21:00,57.0,10.0,-100.00,SSW,205,4.0,18.0,15,0.00,,,0.00,0.000000,,2013-03-26 12:21:00,
2013-03-26 05:52:00,57.0,10.0,-100.00,WNW,283,14.0,28.0,15,0.00,,,0.00,0.000000,,2013-03-26 12:52:00,
2013-03-26 06:02:00,57.0,10.0,-100.00,WNW,283,14.0,28.0,15,0.00,,,0.00,0.000000,,2013-03-26 13:02:00,
2013-03-26 06:12:00,57.0,10.0,-100.00,WNW,283,14.0,28.0,15,0.00,,,0.00,0.000000,,2013-03-26 13:12:00,
2013-03-26 06:22:00,57.0,10.0,-100.00,WNW,283,14.0,28.0,15,0.00,,,0.00,0.000000,,2013-03-26 13:22:00,
2013-03-26 06:52:00,58.0,9.0,-100.00,WNW,301,9.0,34.0,14,0.00,,,0.00,0.000000,,2013-03-26 13:52:00,
2013-03-26 07:02:00,58.0,9.0,-100.00,WNW,301,9.0,34.0,14,0.00,,,0.00,0.000000,,2013-03-26 14:02:00,
2013-03-26 07:11:00,58.0,9.0,-100.00,WNW,301,9.0,34.0,14,0.00,,,0.00,0.000000,,2013-03-26 14:11:00,
2013-03-26 07:21:00,58.0,9.0,-100.00,WNW,301,9.0,34.0,14,0.00,,,0.00,0.000000,,2013-03-26 14:21:00,
2013-03-26 07:52:00,59.0,8.0,-100.00,SW,217,9.0,37.0,13,0.00,,,0.00,16.000000,,2013-03-26 14:52:00,
2013-03-26 08:02:00,59.0,8.0,-100.00,SW,217,9.0,37.0,13,0.00,,,0.00,16.000000,,2013-03-26 15:02:00,
2013-03-26 08:12:00,59.0,8.0,-100.00,SW,217,9.0,37.0,13,0.00,,,0.00,16.000000,,2013-03-26 15:12:00,
2013-03-26 08:21:00,59.0,8.0,-100.00,SW,217,9.0,37.0,13,0.00,,,0.00,16.000000,,2013-03-26 15:21:00,
2013-03-26 08:53:00,60.0,12.0,-100.00,East,85,4.0,11.0,15,0.00,,,0.00,240.000000,,2013-03-26 15:53:00,
2013-03-26 09:02:00,60.0,12.0,-100.00,East,85,4.0,11.0,15,0.00,,,0.00,240.000000,,2013-03-26 16:02:00,
2013-03-26 09:12:00,60.0,12.0,-100.00,East,85,4.0,11.0,15,0.00,,,0.00,240.000000,,2013-03-26 16:12:00,
2013-03-26 09:22:00,60.0,12.0,-100.00,East,85,4.0,11.0,15,0.00,,,0.00,240.000000,,2013-03-26 16:22:00,
2013-03-26 09:53:00,62.0,12.0,-100.00,East,85,3.0,11.0,14,0.00,,,0.00,364.000000,,2013-03-26 16:53:00,
2013-03-26 10:02:00,62.0,12.0,-100.00,East,85,3.0,11.0,14,0.00,,,0.00,364.000000,,2013-03-26 17:02:00,
2013-03-26 10:12:00,62.0,12.0,-100.00,East,85,3.0,11.0,14,0.00,,,0.00,364.000000,,2013-03-26 17:12:00,
2013-03-26 10:22:00,62.0,12.0,-100.00,East,85,3.0,11.0,14,0.00,,,0.00,364.000000,,2013-03-26 17:22:00,
2013-03-26 10:53:00,66.0,12.0,-100.00,East,87,1.0,7.0,12,0.00,,,0.00,461.000000,,2013-03-26 17:53:00,
2013-03-26 11:02:00,66.0,12.0,-100.00,East,87,1.0,7.0,12,0.00,,,0.00,461.000000,,2013-03-26 18:02:00,
2013-03-26 11:12:00,66.0,12.0,-100.00,East,87,1.0,7.0,12,0.00,,,0.00,461.000000,,2013-03-26 18:12:00,
2013-03-26 11:22:00,66.0,12.0,-100.00,East,87,1.0,7.0,12,0.00,,,0.00,461.000000,,2013-03-26 18:22:00,
2013-03-26 11:52:00,74.0,12.0,-100.00,East,93,4.0,10.0,9,0.00,,,0.00,1128.000000,,2013-03-26 18:52:00,
2013-03-26 12:53:00,77.0,11.0,-100.00,ESE,121,2.0,12.0,8,-99.99,,,0.00,1389.000000,,2013-03-26 19:53:00,
2013-03-26 13:52:00,72.0,17.0,-100.00,West,268,9.0,20.0,12,-99.99,,,0.00,1356.000000,,2013-03-26 20:52:00,
2013-03-26 14:02:00,72.0,17.0,-100.00,West,268,9.0,20.0,12,-99.99,,,0.00,1356.000000,,2013-03-26 21:02:00,
2013-03-26 14:12:00,72.0,17.0,-100.00,West,268,9.0,20.0,12,-99.99,,,0.00,1356.000000,,2013-03-26 21:12:00,
2013-03-26 14:22:00,72.0,17.0,-100.00,West,268,9.0,20.0,12,-99.99,,,0.00,1356.000000,,2013-03-26 21:22:00,
2013-03-26 14:52:00,69.0,19.0,-100.00,WNW,284,12.0,26.0,15,0.00,,,0.00,1204.000000,,2013-03-26 21:52:00,
2013-03-26 15:02:00,69.0,19.0,-100.00,WNW,284,12.0,26.0,15,0.00,,,0.00,1204.000000,,2013-03-26 22:02:00,
2013-03-26 15:12:00,69.0,19.0,-100.00,WNW,284,12.0,26.0,15,0.00,,,0.00,1204.000000,,2013-03-26 22:12:00,
2013-03-26 15:22:00,69.0,19.0,-100.00,WNW,284,12.0,26.0,15,0.00,,,0.00,1204.000000,,2013-03-26 22:22:00,
2013-03-26 15:52:00,71.0,24.0,-100.00,WSW,256,8.0,25.0,17,0.00,,,0.00,1053.000000,,2013-03-26 22:52:00,
2013-03-26 16:01:00,71.0,24.0,-100.00,WSW,256,8.0,25.0,17,0.00,,,0.00,1053.000000,,2013-03-26 23:01:00,
2013-03-26 16:10:00,71.0,24.0,-100.00,WSW,256,8.0,25.0,17,0.00,,,0.00,1053.000000,,2013-03-26 23:10:00,
2013-03-26 16:21:00,71.0,24.0,-100.00,WSW,256,8.0,25.0,17,0.00,,,0.00,1053.000000,,2013-03-26 23:21:00,
2013-03-26 16:52:00,68.0,25.0,-100.00,West,279,14.0,31.0,20,0.00,,,0.00,834.000000,,2013-03-26 23:52:00,
2013-03-26 17:02:00,68.0,25.0,-100.00,West,279,14.0,31.0,20,0.00,,,0.00,834.000000,,2013-03-27 00:02:00,
2013-03-26 17:12:00,68.0,25.0,-100.00,West,279,14.0,31.0,20,0.00,,,0.00,834.000000,,2013-03-27 00:12:00,
2013-03-26 17:22:00,68.0,25.0,-100.00,West,279,14.0,31.0,20,0.00,,,0.00,834.000000,,2013-03-27 00:22:00,
2013-03-26 17:52:00,64.0,24.0,-100.00,West,279,25.0,46.0,22,0.00,,,0.00,573.000000,,2013-03-27 00:52:00,
2013-03-26 18:02:00,64.0,24.0,-100.00,West,279,25.0,46.0,22,0.00,,,0.00,573.000000,,2013-03-27 01:02:00,
2013-03-26 18:12:00,64.0,24.0,-100.00,West,279,25.0,46.0,22,0.00,,,0.00,573.000000,,2013-03-27 01:12:00,
2013-03-26 18:22:00,64.0,24.0,-100.00,West,279,25.0,46.0,22,0.00,,,0.00,573.000000,,2013-03-27 01:22:00,
2013-03-26 18:53:00,64.0,26.0,-100.00,West,271,27.0,49.0,24,0.00,,,0.00,172.000000,,2013-03-27 01:53:00,
2013-03-26 19:02:00,64.0,26.0,-100.00,West,271,27.0,49.0,24,0.00,,,0.00,172.000000,,2013-03-27 02:02:00,
2013-03-26 19:12:00,64.0,26.0,-100.00,West,271,27.0,49.0,24,0.00,,,0.00,172.000000,,2013-03-27 02:12:00,
2013-03-26 19:22:00,64.0,26.0,-100.00,West,271,27.0,49.0,24,0.00,,,0.00,172.000000,,2013-03-27 02:22:00,
2013-03-26 19:53:00,62.0,19.0,-100.00,West,273,26.0,61.0,19,0.00,,,0.00,22.000000,,2013-03-27 02:53:00,
2013-03-26 20:02:00,62.0,19.0,-100.00,West,273,26.0,61.0,19,0.00,,,0.00,22.000000,,2013-03-27 03:02:00,
2013-03-26 20:11:00,62.0,19.0,-100.00,West,273,26.0,61.0,19,0.00,,,0.00,22.000000,,2013-03-27 03:11:00,
2013-03-26 20:22:00,62.0,19.0,-100.00,West,273,26.0,61.0,19,0.00,,,0.00,22.000000,,2013-03-27 03:22:00,
2013-03-26 20:53:00,59.0,28.0,-100.00,West,268,26.0,61.0,30,0.00,,,0.00,0.000000,,2013-03-27 03:53:00,
2013-03-26 21:02:00,59.0,28.0,-100.00,West,268,26.0,61.0,30,0.00,,,0.00,0.000000,,2013-03-27 04:02:00,
2013-03-26 21:12:00,59.0,28.0,-100.00,West,268,26.0,61.0,30,0.00,,,0.00,0.000000,,2013-03-27 04:12:00,
2013-03-26 21:22:00,59.0,28.0,-100.00,West,268,26.0,61.0,30,0.00,,,0.00,0.000000,,2013-03-27 04:22:00,
2013-03-26 21:52:00,61.0,26.0,-100.00,West,271,24.0,54.0,26,0.00,,,0.00,0.000000,,2013-03-27 04:52:00,
2013-03-26 22:02:00,61.0,26.0,-100.00,West,271,24.0,54.0,26,0.00,,,0.00,0.000000,,2013-03-27 05:02:00,
2013-03-26 22:12:00,61.0,26.0,-100.00,West,271,24.0,54.0,26,0.00,,,0.00,0.000000,,2013-03-27 05:12:00,
2013-03-26 22:22:00,61.0,26.0,-100.00,West,271,24.0,54.0,26,0.00,,,0.00,0.000000,,2013-03-27 05:22:00,
2013-03-26 22:52:00,60.0,22.0,-100.00,West,272,19.0,44.0,23,0.00,,,0.00,0.000000,,2013-03-27 05:52:00,
2013-03-26 23:02:00,60.0,22.0,-100.00,West,272,19.0,44.0,23,0.00,,,0.00,0.000000,,2013-03-27 06:02:00,
2013-03-26 23:12:00,60.0,22.0,-100.00,West,272,19.0,44.0,23,0.00,,,0.00,0.000000,,2013-03-27 06:12:00,
2013-03-26 23:22:00,60.0,22.0,-100.00,West,272,19.0,44.0,23,0.00,,,0.00,0.000000,,2013-03-27 06:22:00,
2013-03-26 23:53:00,60.0,20.0,-100.00,WNW,283,20.0,38.0,21,0.00,,,0.00,0.000000,,2013-03-27 06:53:00,